Home   Weather   Chula Vista   Past weeks

Flag for USA Past Weather in Chula Vista, California, USA — Yesterday and Last 2 Weeks

Now
51 °F

Passing clouds.


Feels Like: 50 °F
Forecast: 52 / 69 °F
Wind: 5 mph from Southeast

Location: Brown Field Municipal Airport

Current Time: Feb 21, 2017 at 4:29:46 am

Latest Report: Feb 21, 2017 at 3:53 am


Visibility: 10 mi

Pressure: 30.27 "Hg

Humidity: 96%

Dew Point: 50 °F

Location of Chula VistaLocation

Past Weather in Chula Vista — Graph

°F

Chula Vista Temperature Yesterday

Maximum temperature yesterday: 68 °F (at 12:53 pm)
Minimum temperature yesterday: 49 °F (at 5:53 am)
Average temperature yesterday: 57 °F

High & Low Weather Summary for the Past Weeks

 TemperatureHumidityPressure
High76 °F (Feb 9, 11:53 am)100% (Feb 7, 4:06 am)30.31 "Hg (Feb 7, 4:06 am)
Low47 °F (Feb 11, 9:53 pm)32% (Feb 15, 12:53 pm)29.49 "Hg (Feb 17, 6:53 pm)
Average57 °F86%30.01 "Hg
* Reported Feb 6 2:53 am — Feb 21 2:53 am, Chula Vista, Weather by CustomWeather, © 2017

Note: Actual official high and low records may vary slightly from our data, if they occured in-between our weather recording intervals... More about our weather records

Advertising

Chula Vista Weather History for the Previous 24 Hours

Scroll right to see more
 ConditionsComfort  
Time TempWeatherWind HumidityBarometerVisibility
2:53 am
Tue, Feb 21
52 °FFog.7 mph97%30.29 "Hg4 mi
1:53 am52 °FClear.5 mph97%30.30 "Hg9 mi
12:53 am51 °FPassing clouds.3 mph96%30.31 "Hg10 mi
11:53 pm
Mon, Feb 20
54 °FClear.3 mph93%30.31 "Hg10 mi
10:53 pm54 °FClear.No wind93%30.30 "Hg10 mi
9:53 pm54 °FClear.No wind93%30.29 "Hg10 mi
8:53 pm55 °FClear.No wind93%30.28 "Hg10 mi
7:53 pm57 °FClear.5 mph87%30.29 "Hg10 mi
6:53 pm57 °FClear.5 mph90%30.27 "Hg10 mi
5:53 pm58 °FClear.5 mph87%30.25 "Hg10 mi
4:53 pm61 °FSunny.9 mph75%30.23 "Hg10 mi
3:53 pm63 °FSunny.10 mph73%30.22 "Hg10 mi
2:53 pm65 °FPassing clouds.8 mph66%30.22 "Hg10 mi
1:53 pm67 °FScattered clouds.9 mph63%30.22 "Hg10 mi
12:53 pm68 °FSunny.6 mph59%30.22 "Hg10 mi
11:53 am67 °FPartly sunny.5 mph59%30.25 "Hg10 mi
10:53 am64 °FPartly sunny.No wind58%30.27 "Hg10 mi
9:53 am62 °FScattered clouds.No wind65%30.27 "Hg10 mi
8:53 am59 °FPartly sunny.3 mph69%30.26 "Hg10 mi
7:53 am54 °FScattered clouds.5 mph80%30.24 "Hg10 mi
6:53 am52 °FOvercast.No wind89%30.23 "Hg9 mi
5:53 am49 °FPassing clouds.3 mph93%30.20 "Hg10 mi
4:53 am51 °FPassing clouds.3 mph92%30.20 "Hg9 mi
Weather by CustomWeather, © 2017

See weather overviewHow to use our weather pages